CDT,Max TemperatureF,Mean TemperatureF,Min TemperatureF,Max Dew PointF,MeanDew PointF,Min DewpointF,Max Humidity, Mean Humidity, Min Humidity, Max Sea Level PressureIn, Mean Sea Level PressureIn, Min Sea Level PressureIn, Max VisibilityMiles, Mean VisibilityMiles, Min VisibilityMiles, Max Wind SpeedMPH, Mean Wind SpeedMPH, Max Gust SpeedMPH,PrecipitationIn, CloudCover, Events, WindDirDegrees
2013-3-1,28,26,23,21,20,15,88,78,68,30.35,30.25,30.18,10,8,3,17,11,22,T,8,Snow,353
2013-3-2,27,24,20,16,15,13,74,69,63,30.37,30.31,30.21,10,10,10,14,6,18,0.00,5,,301
2013-3-3,34,26,18,20,17,13,80,65,49,30.20,30.03,29.88,10,10,9,18,9,23,0.00,4,,135
2013-3-4,41,36,30,30,27,21,92,76,59,29.96,29.85,29.76,10,7,1,10,7,16,0.03,4,Snow,62
2013-3-5,33,29,24,30,23,17,92,80,68,30.32,30.09,29.93,10,6,0,32,19,43,0.02,8,Fog-Snow,312
2013-3-6,33,27,21,19,18,16,81,70,58,30.45,30.38,30.31,10,10,10,20,8,24,0.00,4,,350
2013-3-7,38,27,16,24,19,13,92,73,54,30.38,30.32,30.25,10,9,6,14,7,17,0.00,0,,111
2013-3-8,44,36,28,32,28,22,78,68,58,30.29,30.20,30.05,10,10,7,17,9,24,0.02,3,Rain,128
2013-3-9,47,42,37,46,39,32,100,93,85,30.01,29.78,29.63,10,4,0,21,12,28,0.88,8,Fog-Rain-Thunderstorm,150
2013-3-10,47,38,29,45,34,25,100,93,85,29.80,29.69,29.62,10,5,0,23,13,31,0.17,8,Fog-Rain,352
2013-3-11,32,28,23,25,22,18,85,74,63,30.01,29.87,29.77,10,10,4,23,14,31,T,6,Snow,302
2013-3-12,37,30,22,25,21,18,88,74,59,30.31,30.16,30.01,10,10,8,32,18,39,T,5,Snow,299
2013-3-13,40,29,18,21,17,14,84,62,40,30.48,30.40,30.32,10,10,10,16,7,21,0.00,0,,298
2013-3-14,61,46,30,39,30,21,85,63,40,30.33,30.15,30.07,10,10,10,16,8,22,0.00,1,,232
2013-3-15,70,51,32,47,39,30,92,66,39,30.09,29.82,29.68,10,8,4,18,8,24,0.00,0,,233
2013-3-16,41,35,28,39,29,21,100,77,54,30.17,29.98,29.77,10,8,2,25,14,32,0.00,6,,10
2013-3-17,39,32,24,28,23,18,82,71,59,30.16,30.01,29.82,10,10,10,17,11,24,0.00,5,,82
2013-3-18,41,32,23,34,27,16,92,66,40,30.04,29.82,29.73,10,7,1,37,14,45,0.04,5,Snow,286
2013-3-19,45,33,20,25,14,8,77,51,25,30.27,30.17,30.05,10,10,10,16,9,20,0.00,2,,298
2013-3-20,31,24,17,20,9,3,81,58,35,30.38,30.28,30.18,10,10,10,26,14,33,T,2,,325
2013-3-21,36,25,14,15,11,8,80,58,35,30.14,30.06,29.97,10,10,10,13,6,16,0.00,4,,74
2013-3-22,36,29,21,21,17,14,77,60,43,30.07,30.04,30.00,10,10,10,9,5,13,0.00,7,,64
2013-3-23,44,37,29,28,24,19,92,68,44,30.10,30.02,29.97,10,6,1,20,11,25,0.10,8,Snow,32
2013-3-24,30,28,26,27,24,21,92,87,81,30.01,29.93,29.87,10,2,1,24,17,32,0.10,8,Snow,342
2013-3-25,32,29,26,25,22,19,92,76,59,30.31,30.08,29.95,10,5,1,24,16,32,0.01,7,Snow,322
2013-3-26,38,28,18,22,19,13,75,66,56,30.40,30.34,30.31,10,10,10,14,7,18,0.00,3,,303
2013-3-27,47,36,24,29,24,19,81,65,49,30.37,30.32,30.25,10,10,10,13,6,16,0.00,2,,145
2013-3-28,59,44,28,35,30,24,85,61,37,30.30,30.25,30.19,10,10,10,13,6,18,0.00,0,,111
2013-3-29,65,50,35,36,31,28,82,55,27,30.27,30.21,30.13,10,10,9,12,7,17,0.00,1,,112
2013-3-30,56,50,43,52,45,34,100,78,56,30.12,29.95,29.86,10,5,0,7,7,8,1.01,5,Fog-Rain-Thunderstorm,185
2013-3-31,57,45,32,42,34,25,92,61,30,30.09,29.96,29.91,10,9,4,28,13,37,0.02,2,Snow,320